Regional Weather Roundup
Issued by NWS

Home | Current Version | Previous Version | Text Only | Print | Product List | Glossary On
Versions: 1 2 3 4 5 6 7 8 9 10 11 12 13 14 15 16 17 18 19 20 21 22 23 24 25 26 27 28 29 30 31 32 33 34 35 36 37 38 39 40 41 42 43 44 45 46 47 48 49 50
000
ASUS45 KPSR 250800
RWRAZ

PRELIMINARY ARIZONA REGIONAL HOURLY WEATHER ROUNDUP
NATIONAL WEATHER SERVICE PHOENIX AZ
100 AM MST SAT OCT 25 2014

NOTE: FAIR INDICATES FEW OR NO CLOUDS BELOW 12,000 FEET WITH NO
SIGNIFICANT WEATHER AND/OR OBSTRUCTIONS TO VISIBILITY.

AZZ001>003-036-250900-
NORTHWEST ARIZONA

CITY           SKY/WX    TMP DP  RH WIND       PRES   REMARKS
KINGMAN        CLEAR     61  39  44 S7        30.13S
$$

AZZ004>008-015-016-018-250900-
NORTH CENTRAL ARIZONA

CITY           SKY/WX    TMP DP  RH WIND       PRES   REMARKS
GRAND CANYON   CLEAR     34  22  61 CALM      30.35S SMOKE
PRESCOTT       CLEAR     53  37  54 S6        30.25S
FLAGSTAFF      CLEAR     37  30  75 CALM      30.38S
PAYSON         CLEAR     55  39  54 CALM      30.28S
PAGE           CLEAR     58  35  42 SW3       30.19F
$$

AZZ009>014-017-250900-
NORTHEAST ARIZONA

CITY           SKY/WX    TMP DP  RH WIND       PRES   REMARKS
WINSLOW        NOT AVBL
SAINT JOHNS    CLEAR     49  40  71 S3        30.31R
WINDOW ROCK    CLEAR     37  25  61 S5        30.38S WCI  33
$$

AZZ023-250900-
GREATER PHOENIX AREA

CITY           SKY/WX    TMP DP  RH WIND       PRES   REMARKS
PHOENIX        CLEAR     77  50  38 E6        29.98S
LUKE AFB       CLEAR    N/A N/A N/A N8          N/A
DEER VALLEY    CLEAR     76  45  33 NE9       30.00S
SCOTTSDALE     CLEAR     72  49  44 NW3       30.01S
MESA-GATEWAY   CLEAR     66  50  55 CALM      30.03R
$$

AZZ027-028-250900-
SOUTHWEST MARICOPA COUNTY AND PINAL COUNTY

CITY           SKY/WX    TMP DP  RH WIND       PRES   REMARKS
CASA GRANDE    CLEAR     70  46  43 CALM      30.02S
$$

AZZ503-504-507>509-250900-
SOUTHEAST ARIZONA

CITY           SKY/WX    TMP DP  RH WIND       PRES   REMARKS
TUCSON         CLEAR     71  47  42 SE10      30.12S
DAVIS-MONTHAN  CLEAR     66  47  51 SE8       30.10S
NOGALES        CLEAR     57  46  66 CALM      30.18F
SIERRA VISTA   CLEAR     65  44  46 SW9       30.23S
SAFFORD        CLEAR     59  49  69 CALM      30.14R
$$

AZZ020-021-025-026-031-250900-
SOUTHWEST ARIZONA

CITY           SKY/WX    TMP DP  RH WIND       PRES   REMARKS
YUMA           CLEAR     76  47  35 CALM      29.93S
$$

CAZ031-033-041-043-047-048-061-250900-
SOUTHERN CALIFORNIA

CITY           SKY/WX    TMP DP  RH WIND       PRES   REMARKS
DOWNTOWN L.A.  CLEAR     65  58  78 CALM      30.01S
L.A. AIRPORT   MOCLDY    66  66 100 SW9       30.02R FOG
SAN DIEGO      PTCLDY    70  62  76 CALM      30.02S
BURBANK        CLEAR     67  54  63 S3        30.02S
ONTARIO        CLEAR     68  38  33 NE5       30.03R
RIVERSIDE      CLEAR     68  39  34 E3        30.03R
PALM SPRINGS   CLEAR     75  47  36 CALM      29.97S
EL CENTRO NAS  CLEAR     72  43  35 W8        29.92R
IMPERIAL       CLEAR     72  46  39 NW6       29.92R
BLYTHE         CLEAR     72  46  39 NW3       29.94S
$$

NVZ020-UTZ003-250900-
SOUTHERN NEVADA-UTAH

CITY           SKY/WX    TMP DP  RH WIND       PRES   REMARKS
LAS VEGAS      NOT AVBL
SALT LAKE CITY CLEAR     59  30  33 SE15      30.08F
$$

NMZ009-TXZ055-250900-
NEW MEXICO-WEST TEXAS

CITY           SKY/WX    TMP DP  RH WIND       PRES   REMARKS
ALBUQUERQUE    CLEAR     59  36  42 CALM      30.29S
EL PASO        CLEAR     63  48  58 CALM      30.20S
$$


........................KEY........................
SKY/WX - SKY CONDITION/WEATHER
TMP    - TEMPERATURE IN FAHRENHEIT
DP     - DEW POINT IN FAHRENHEIT
RH     - RELATIVE HUMIDITY IN PERCENT
WIND   - DIRECTION AND SPEED IN MILES PER HOUR (MPH)
VRB    - VARIABLE WIND DIRECTION
PRES   - MEAN SEA LEVEL PRESSURE IN INCHES OF MERCURY
         F - FALLING PRESSURE   R - RISING PRESSURE
         S - STEADY PRESSURE
VSB    - VISIBILITY IN MILES
HX     - HEAT INDEX IN FAHRENHEIT
WCI    - WIND CHILL INDEX IN FAHRENHEIT
TC     - TEMPERATURE IN CELSIUS WHICH IS ALSO KNOWN AS
         TEMPERATURE IN CENTIGRADE
AFB    - AIR FORCE BASE
         LUKE AFB IS LUKE AIR FORCE BASE
         DAVIS-MONTHAN IS DAVIS-MONTHAN AIR FORCE BASE
NAS    - NAVAL AIR STATION
         EL CENTRO NAS IS EL CENTRO NAVAL AIR STATION
N/A    - NOT AVAILABLE



USA.gov is the U.S. government's official web portal to all federal, state and local government web resources and services.